Regional Weather Roundup
Issued by NWS

Home | Current Version | Previous Version | Graphics & Text | Print | Product List | Glossary On
Versions: 1 2 3 4 5 6 7 8 9 10 11 12 13 14 15 16 17 18 19 20 21 22 23 24 25 26 27 28 29 30 31 32 33 34 35 36 37 38 39 40 41 42 43 44 45 46 47 48 49 50
000
ASUS44 KMEG 300700
RWRTN
TENNESSEE HOURLY STATE WEATHER ROUNDUP
NATIONAL WEATHER SERVICE MEMPHIS TN
200 AM CDT SAT JUL 30 2016

TNZ002-004-019-021-049-052-054-088>092-300800-
WEST TENNESSEE

CITY           SKY/WX    TMP DP  RH WIND       PRES   REMARKS
MEMPHIS INTL   CLOUDY    72  70  93 CALM      29.97F FOG
NWS MEMPHIS      N/A     71 N/A N/A MISG        N/A
JACKSON        PTCLDY    72  72 100 SW6       29.96S
DYERSBURG      MOCLDY   N/A N/A N/A MISG        N/A
PARIS          CLOUDY    70  70 100 CALM      29.96S
LEXINGTON      CLEAR     70  70 100 SW3       29.95R
$$

TNZ008-025-027-028-033-062-065-066-300800-
NORTH MIDDLE TENNESSEE

CITY           SKY/WX    TMP DP  RH WIND       PRES   REMARKS
NASHVILLE      PTCLDY    74  70  87 CALM      29.95S
CLARKSVILLE    CLEAR     72  70  93 W5        29.95S
COOKEVILLE     CLEAR     72  72 100 CALM      29.96S
CROSSVILLE     PTCLDY    71  69  93 CALM      30.02R
$$

TNZ061-075-076-078-094-096-097-300800-
SOUTH MIDDLE TENNESSEE

CITY           SKY/WX    TMP DP  RH WIND       PRES   REMARKS
TULLAHOMA      CLEAR     70  66  88 CALM      29.98S
WINCHESTER     CLEAR     72  72 100 CALM      29.98R
MCMINNVILLE    CLEAR     72  72 100 CALM      29.97S
COLUMBIA       CLEAR    N/A N/A N/A CALM      29.94R
SHELBYVILLE    CLEAR     72  70  94 SE6       29.97S
$$

TNZ017-018-042-046-047-300800-
NORTHEAST TENNESSEE

CITY           SKY/WX    TMP DP  RH WIND       PRES   REMARKS
TRI CITIES     FOG       69  68  96 CALM      30.01F VSB 1/2
$$

TNZ012-013-036-069-073-074-300800-
CENTRAL EAST TENNESSEE

CITY           SKY/WX    TMP DP  RH WIND       PRES   REMARKS
KNOXVILLE      PTCLDY    73  69  87 SW3       29.97F
OAK RIDGE      CLOUDY    75  71  87 CALM      29.99S
GATLINBURG     CLEAR     70  68  94 CALM      29.98F
$$

TNZ083-085-099-300800-
SOUTHEAST TENNESSEE

CITY           SKY/WX    TMP DP  RH WIND       PRES   REMARKS
CHATTANOOGA    CLOUDY    76  68  76 CALM      29.95F
$$

SKY/WX REPORTED AS FAIR MEANS FEW OR NO CLOUDS BELOW
12 THOUSAND FEET.





USA.gov is the U.S. government's official web portal to all federal, state and local government web resources and services.